Weather in Little Rock

United States     34°43′51″N   92°18′03″W
temp.,
°C
wind,
m/s
gust,
m/s
humid.,
%
clouds,
%
prec.,
mm/h
press.,
hPa
HPBL,
m
18 september, sat
sat1801:00+22nne389297 0.0 1016266
04:00+21n379628 0.6 1016221
07:00+21nne399853 3.9 1017379
10:00+25ne468559 0.0 1018624
13:00+29ene456840 1.6 10171222
16:00+29ene236810 3.0 10151104
19:00+25ne368635 6.2 101594
22:00+22ne389691 7.8 1016226
19 september, sun
sun1901:00+21ene269891 9.1 1016191
04:00+21ene1297100 0.1 101562
07:00+21e119784 0.1 101533
10:00+25ene118491 1.4 1016215
13:00+28ese236681 5.1 10141103
16:00+30se335786 0.6 10111516
19:00+26ese367349 0.8 1012197
22:00+22se26925 1.6 1013154
20 september, mon
mon2001:00+22se26955 4.3 1013156
04:00+21sse23966 0.0 101293
07:00+20se239818 0.0 1012114
10:00+25s348136 0.0 1014558
13:00+31s335324 0.1 10121625
16:00+32se344899 0.0 10101153
19:00+27se39640 0.0 1011299
22:00+24sse39761 0.0 1013238
21 september, tue
tue2101:00+23s29795 0.0 1013240
04:00+22sw25885 0.0 1014132
07:00+22s2386100 0.0 1016120
10:00+28wsw366544 0.0 1017477
13:00+32nnw555244 0.0 10171494
16:00+24n4108386 1.9 1016402
19:00+21n412755 2.8 1018540
22:00+20n311690 0.0 1021364
22 september, wed
wed2201:00+18n412610 0.0 1022464
04:00+16n310660 0.0 1023306
07:00+14n39650 0.0 1024233
10:00+20nne48440 0.0 1025730
13:00+25ne58290 0.0 10241803
16:00+26ne57270 0.0 10222144
19:00+20ene35450 0.0 1022114
22:00+17e27530 0.0 1023152